Weather observations for the past three days for
MANDAN
Metric (Imperial)
Date Time (cdt) Wind (kph) Vis. (km) Weather Sky Cond. Temperature (ºC) Relative Humidity Wind Chill (°C) Heat Index (°C) Pressure Precipitation (cm)
Air Dwpt 6 hour altimeter (cm) sea level (mb) 1 hr 3 hr 6 hr
Max. Min.
06 10:35 NE 9 16.09 Fair CLR 25 24 94% 26 76.05 0.0
06 10:15 NE 6 16.09 Fair CLR 25 24 94% 26 76.05 0.0
06 09:55 Calm 16.09 Fair CLR 24 23 94% 23 76.05 0.0
06 09:35 Calm 16.09 Fair CLR 22 22 100% 76.07 0.0
06 09:15 Calm 16.09 Fair CLR 22 22 100% 76.1 0.0
06 08:55 Calm 16.09 Fair CLR 22 22 100% 76.1 0.0
06 08:35 NW 9 G 22 16.09 Fair CLR 21 21 100% 76.1 0.0
06 08:15 E 11 16.09 Fair CLR 20 20 100% 76.02 0.0
06 07:55 S 7 16.09 Fair CLR 21 21 100% 76.05 0.0
06 07:35 Calm 16.09 Fair CLR 20 20 100% 76.05 0.0
06 07:15 S 17 16.09 Mostly Cloudy SCT065 SCT080 BKN100 20 20 100% 76.07 0.0
06 06:55 S 15 16.09 Mostly Cloudy FEW070 SCT075 BKN095 20 20 100% 76.1 0.0
06 06:35 S 17 16.09 Fair CLR 20 20 100% 76.07 0.0
06 06:15 SE 13 16.09 Fair CLR 19 19 100% 76.07 0.0
06 05:55 SE 11 16.09 Fair CLR 19 19 100% 76.07 0.0
06 05:35 SE 9 16.09 Fair CLR 19 19 100% 76.1 0.0
06 05:15 SE 13 16.09 Fair CLR 19 19 100% 76.07 0.0
06 04:55 E 17 16.09 Fair CLR 19 19 100% 76.1 0.0
06 04:35 E 15 16.09 Fair CLR 19 19 100% 76.1 0.0
06 04:15 E 15 16.09 Fair CLR 19 19 100% 76.07 0.0
06 03:55 E 17 16.09 Fair CLR 19 19 100% 76.07 0.0
06 03:35 E 17 16.09 Fair CLR 19 19 100% 76.1 0.0
06 03:15 E 15 16.09 Fair CLR 19 19 100% 76.07 0.0
06 02:55 E 13 16.09 Fair CLR 19 19 100% 76.07 0.0
06 02:35 E 13 16.09 Fair CLR 19 19 100% 76.07 0.0
06 02:15 E 9 16.09 Fair CLR 19 19 100% 76.07 0.0
06 01:55 E 15 16.09 Fair CLR 20 20 100% 76.07 0.0
06 01:35 E 13 16.09 Fair CLR 20 20 100% 76.1 0.0
06 01:15 E 15 16.09 Fair CLR 20 20 100% 76.1 0.0
06 00:55 E 15 16.09 Fair CLR 20 20 100% 76.07 0.0
06 00:35 E 15 16.09 Fair CLR 21 21 100% 76.1 0.0
06 00:15 E 17 16.09 Fair CLR 21 21 100% 76.1 0.0
05 23:55 E 19 16.09 Fair CLR 21 21 100% 76.07 0.0
05 23:35 E 19 16.09 Fair CLR 21 21 100% 76.1 0.0
05 23:15 E 15 16.09 Fair CLR 21 21 100% 76.07 0.0
05 22:55 E 17 16.09 Fair CLR 22 22 100% 76.1 0.0
05 22:35 E 15 16.09 Fair CLR 22 21 94% 76.1 0.0
05 22:15 E 13 16.09 Fair CLR 22 21 94% 76.05 0.0
05 21:55 E 17 16.09 Fair CLR 22 21 94% 76.02 0.0
05 21:35 E 15 16.09 Fair CLR 23 21 89% 76.02 0.0
05 21:15 E 17 16.09 Fair CLR 24 21 83% 24 76 0.0
05 20:55 SE 11 16.09 Fair CLR 23 20 83% 76 0.0
05 20:35 E 13 16.09 Fair CLR 24 20 78% 24 76 0.0
05 20:15 E 17 16.09 Fair CLR 24 20 78% 24 75.97 0.0
05 19:55 E 20 16.09 Fair CLR 26 21 74% 27 75.95 0.0
05 19:35 SE 11 16.09 Fair CLR 27 22 74% 29 75.95 0.0
05 19:15 SE 15 14.48 Fair CLR 28 22 70% 31 75.97 0.0
05 18:15 SE 30 16.09 Fair CLR 32 22 55% 36 76 0.0
05 17:55 SE 20 16.09 Fair CLR 32 22 55% 36 75.95 0.0
05 17:35 SE 24 16.09 Fair CLR 32 21 52% 35 75.92 0.0
05 17:15 SE 20 16.09 Fair CLR 33 21 49% 36 75.87 0.0
05 16:55 SE 15 G 26 16.09 Fair CLR 33 21 49% 36 75.9 0.0
05 16:35 SE 19 G 30 16.09 Fair CLR 33 21 49% 36 75.92 0.0
05 16:15 SE 20 16.09 Fair CLR 33 21 49% 36 75.92 0.0
05 15:55 E 20 16.09 Fair CLR 33 21 49% 36 75.92 0.0
05 15:35 E 17 16.09 Fair CLR 33 21 49% 36 75.92 0.0
05 15:15 E 20 G 31 16.09 Fair CLR 32 20 49% 34 75.95 0.0
05 14:55 SE 22 G 31 16.09 Fair CLR 32 20 49% 34 75.95 0.0
05 12:55 E 20 16.09 Fair CLR 31 20 52% 33 76.02 0.0
05 12:35 S 13 16.09 Fair CLR 30 20 55% 32 76.02 0.0
05 12:15 S 15 16.09 Fair CLR 30 20 55% 32 76.02 0.0
05 11:55 SE 19 16.09 Fair CLR 28 20 62% 30 76.02 0.0
05 11:35 E 17 16.09 Fair CLR 28 20 62% 30 76.05 0.0
05 11:15 E 17 16.09 Fair CLR 29 20 58% 31 76.05 0.0
05 10:55 SE 15 16.09 Fair CLR 28 20 62% 30 76.05 0.0
05 10:35 E 13 16.09 Fair CLR 28 20 62% 30 76.05 0.0
05 10:15 SE 15 16.09 Fair CLR 27 19 62% 28 76.05 0.0
05 09:55 S 7 16.09 Fair CLR 27 19 62% 28 76.02 0.0
05 09:35 SE 17 G 33 16.09 Fair CLR 26 19 65% 27 76 0.0
05 09:15 S 28 G 37 16.09 Fair CLR 24 19 74% 25 75.95 0.0
05 08:55 S 20 G 33 16.09 Fair CLR 24 19 74% 25 75.95 0.0
05 08:35 SE 17 16.09 Fair CLR 23 20 83% 75.95 0.0
05 08:15 S 19 16.09 Fair CLR 23 20 83% 75.92 0.0
05 07:55 SE 15 G 26 16.09 Fair CLR 22 20 88% 75.92 0.0
05 06:35 S 24 16.09 Partly Cloudy SCT039 22 21 94% 75.87 0.0
05 06:15 S 20 G 30 16.09 Overcast OVC040 22 22 100% 75.9 0.0
05 05:55 SE 22 G 31 16.09 Mostly Cloudy BKN041 22 22 100% 75.9 0.0
05 05:35 SE 15 16.09 A Few Clouds FEW040 21 21 100% 75.87 0.0
05 05:15 SE 17 16.09 Fair CLR 20 20 100% 75.84 0.0
05 04:55 SE 15 16.09 Fair CLR 20 20 100% 75.84 0.0
05 04:35 SE 17 16.09 Fair CLR 20 20 100% 75.84 0.0
05 04:15 E 19 16.09 Fair CLR 20 19 94% 75.84 0.0
05 03:55 E 17 16.09 Fair CLR 20 19 94% 75.84 0.0
05 03:35 SE 19 16.09 Fair CLR 21 19 88% 75.87 0.0
05 03:15 SE 15 16.09 Fair CLR 21 19 88% 75.87 0.0
05 02:55 SE 19 16.09 Fair CLR 21 19 88% 75.9 0.0
05 02:35 SE 19 16.09 Fair CLR 21 19 88% 75.9 0.0
05 02:15 SE 17 16.09 Fair CLR 21 19 88% 75.9 0.0
05 01:55 E 17 16.09 Fair CLR 21 19 88% 75.9 0.0
05 01:35 SE 20 16.09 Fair CLR 22 19 83% 75.92 0.0
05 01:15 E 24 16.09 Fair CLR 22 20 88% 75.92 0.0
05 00:55 E 28 G 37 16.09 Fair CLR 22 20 88% 75.92 0.0
05 00:35 E 26 16.09 Fair CLR 23 20 83% 75.92 0.0
05 00:15 E 20 16.09 Fair CLR 22 20 88% 75.92 0.0
04 23:55 E 20 16.09 Partly Cloudy SCT090 23 20 83% 75.92 0.0
04 23:35 E 20 16.09 Mostly Cloudy BKN090 23 20 83% 75.92 0.0
04 23:15 E 20 16.09 Overcast OVC090 23 20 83% 75.92 0.0
04 22:55 E 17 G 26 16.09 Partly Cloudy SCT090 23 20 83% 75.95 0.0
04 22:15 E 15 16.09 Fair CLR 23 19 78% 75.95 0.0
04 21:55 E 13 G 24 16.09 Fair CLR 23 19 78% 75.95 0.0
04 21:35 E 19 16.09 A Few Clouds FEW120 24 19 74% 25 75.95 0.0
04 21:15 E 20 16.09 Fair CLR 25 19 69% 26 75.95 0.0
04 20:55 E 17 16.09 Fair CLR 25 19 69% 26 75.92 0.0
04 20:35 SE 19 16.09 Fair CLR 26 19 65% 27 75.92 0.0
04 20:15 SE 20 16.09 Fair CLR 26 18 61% 27 75.9 0.0
04 19:55 SE 17 G 28 16.09 Fair CLR 27 18 58% 28 75.9 0.0
04 19:35 SE 22 16.09 Fair CLR 28 17 51% 29 75.9 0.0
04 19:15 SE 20 16.09 Fair CLR 28 16 48% 28 75.87 0.0
04 18:55 SE 17 G 26 16.09 Fair CLR 28 15 45% 28 75.87 0.0
04 18:35 SE 22 G 31 16.09 Fair CLR 31 16 40% 31 75.87 0.0
04 18:15 SE 20 G 30 16.09 Fair CLR 31 17 43% 31 75.84 0.0
04 17:55 SE 26 16.09 Fair CLR 32 17 41% 32 75.84 0.0
04 17:35 SE 30 G 41 16.09 Fair CLR 32 16 38% 32 75.84 0.0
04 17:15 SE 30 G 43 16.09 Fair CLR 32 16 38% 32 75.84 0.0
04 16:55 SE 28 16.09 Fair CLR 32 18 43% 33 75.84 0.0
04 16:35 SE 33 16.09 Fair and Breezy CLR 32 18 43% 33 75.87 0.0
04 16:15 SE 30 16.09 Fair CLR 32 17 41% 32 75.87 0.0
04 15:55 SE 31 16.09 Fair CLR 31 18 46% 32 75.87 0.0
04 15:35 SE 30 16.09 Fair CLR 31 18 46% 32 75.9 0.0
04 15:15 SE 31 16.09 Fair CLR 31 18 46% 32 75.9 0.0
04 14:55 SE 26 G 46 16.09 Fair CLR 31 18 46% 32 75.92 0.0
04 14:35 E 26 G 41 16.09 Fair CLR 30 18 49% 31 75.92 0.0
04 14:15 SE 33 G 44 16.09 Fair and Breezy CLR 30 18 49% 31 75.92 0.0
04 13:55 SE 30 G 39 16.09 Fair CLR 30 18 49% 31 75.97 0.0
04 13:35 SE 24 G 35 16.09 Fair CLR 29 19 55% 30 76 0.0
04 13:15 SE 28 16.09 Fair CLR 29 19 55% 30 76 0.0
04 12:55 E 26 16.09 Fair CLR 28 20 62% 30 76.02 0.0
04 12:35 SE 17 12.87 Fair CLR 27 21 70% 29 76.05 0.0
04 12:15 SE 19 16.09 Fair CLR 26 21 74% 27 76.07 0.0
04 11:55 E 19 G 30 16.09 Fair CLR 25 20 74% 26 76.05 0.0
04 11:35 E 19 16.09 Fair CLR 24 21 83% 24 76.05 0.0
04 11:15 E 19 16.09 Fair CLR 22 21 94% 76.02 0.0
04 10:15 E 17 16.09 Partly Cloudy SCT002 17 17 100% 76.05 0.0
04 09:55 E 19 4.83 Fog/Mist OVC002 16 16 100% 76.05 0.0
04 09:35 E 17 0.24 Light Drizzle OVC002 16 16 100% 76.05 0.0
04 09:15 E 17 0.24 Fog OVC002 15 15 100% 76.05 0.0
04 08:55 E 17 0.24 Fog OVC002 15 15 100% 76.05 0.0
04 08:35 E 15 0.24 Fog OVC001 15 15 100% 76.05 0.0
04 08:15 E 15 0.24 Fog OVC001 15 15 100% 76.05 0.0
04 07:55 E 11 0.24 Fog OVC001 14 14 100% 76.05 0.0
04 07:35 E 13 0.24 Fog BKN001 14 14 100% 76.02 0.0
04 07:15 E 9 0.24 Fog VV000 13 13 100% 76.02 0.0
04 06:55 NE 7 0.40 Fog VV002 13 13 100% 76.02 0.0
04 06:35 E 9 0.40 Fog VV002 14 14 100% 76.02 0.0
04 06:15 E 9 0.40 Fog VV002 14 14 100% 76.05 0.0
04 05:55 E 11 1.21 Fog/Mist VV005 14 14 100% 76.02 0.0
04 05:35 E 11 16.09 Fair CLR 14 14 100% 76.05 0.0
04 05:15 SE 11 16.09 Fair CLR 15 15 100% 76.02 0.0
04 04:55 E 13 16.09 A Few Clouds FEW005 15 15 100% 76.05 0.0
04 04:35 E 11 14.48 Partly Cloudy SCT004 15 15 100% 76 0.0
04 04:15 E 13 16.09 A Few Clouds FEW005 16 16 100% 75.97 0.0
04 03:55 E 15 16.09 Fair CLR 16 16 100% 75.95 0.0
04 03:15 NE 13 16.09 Fair CLR 16 16 100% 75.92 0.0
04 02:55 NE 17 16.09 Fair CLR 16 16 100% 75.9 0.0
04 02:35 NE 15 16.09 Fair CLR 16 16 100% 75.92 0.0
04 02:15 NE 13 16.09 Fair CLR 16 16 100% 75.9 0.0
04 01:55 E 13 16.09 Fair CLR 17 17 100% 75.92 0.0
04 01:35 E 13 16.09 Fair CLR 17 17 100% 75.9 0.0
04 01:15 E 13 16.09 Fair CLR 18 18 100% 75.9 0.0
04 00:55 E 11 16.09 Fair CLR 17 17 100% 75.9 0.0
04 00:35 NE 9 16.09 Fair CLR 18 18 100% 75.9 0.0
04 00:15 NE 9 16.09 Fair CLR 18 18 100% 75.9 0.0
03 23:35 E 7 16.09 Fair CLR 19 19 100% 75.9 0.0
03 23:15 E 7 16.09 Fair CLR 20 19 94% 75.87 0.0
03 22:55 Calm 16.09 Fair CLR 20 20 100% 75.87 0.0
03 22:35 NE 9 16.09 Fair CLR 20 19 94% 75.84 0.0
03 22:15 NE 9 16.09 Fair CLR 20 20 100% 75.82 0.0
03 21:55 NE 9 16.09 Fair CLR 20 20 100% 75.82 0.0
03 21:35 NE 7 16.09 Fair CLR 21 20 94% 75.79 0.0
03 21:15 N 7 16.09 Fair CLR 19 19 100% 75.79 0.0
03 20:55 Calm 16.09 Fair CLR 20 20 100% 75.77 0.0
03 20:35 Calm 16.09 Fair CLR 21 20 94% 75.77 0.0
03 20:15 Calm 16.09 Fair CLR 23 20 83% 75.74 0.0
03 19:55 Calm 16.09 Fair CLR 24 20 78% 24 75.74 0.0
03 19:35 Calm 16.09 Fair CLR 25 21 79% 26 75.72 0.0
03 19:15 Calm 16.09 Fair CLR 25 20 74% 26 75.72 0.0
03 18:55 Calm 16.09 Fair CLR 25 20 74% 26 75.72 0.0
03 18:35 Calm 16.09 Fair CLR 25 21 79% 26 75.69 0.0
03 18:15 SE 7 16.09 Fair CLR 25 21 79% 26 75.69 0.0
03 17:55 Vrbl 9 16.09 Fair CLR 25 21 79% 26 75.67 0.0
03 17:35 E 9 16.09 Fair CLR 25 21 79% 26 75.64 0.0
03 17:15 E 6 16.09 Fair CLR 25 21 79% 26 75.64 0.0
03 16:55 Vrbl 11 16.09 Fair CLR 25 20 74% 26 75.64 0.0
03 16:35 NE 13 16.09 Fair CLR 24 20 78% 24 75.64 0.0
03 16:15 NE 17 16.09 A Few Clouds FEW019 24 20 78% 24 75.64 0.0
03 15:55 NE 13 G 24 16.09 Overcast OVC019 23 20 83% 75.62 0.0
03 15:35 N 19 16.09 Overcast OVC019 23 20 83% 75.64 0.0
03 15:15 N 19 16.09 Overcast OVC019 22 21 94% 75.64 0.0
03 14:55 N 15 16.09 Mostly Cloudy BKN016 BKN022 22 21 94% 75.62 0.0
03 14:35 NE 20 16.09 Mostly Cloudy SCT017 BKN021 22 21 94% 75.59 0.0
03 14:15 N 17 16.09 Overcast BKN014 OVC022 22 21 94% 75.62 0.0
03 13:55 N 17 16.09 Overcast SCT014 OVC022 22 21 94% 75.64 0.0
03 13:35 N 9 16.09 Overcast SCT009 SCT013 OVC021 21 21 100% 75.64 0.0
03 13:15 NW 11 16.09 Overcast OVC008 21 21 100% 75.64 0.0
03 12:55 N 13 16.09 Overcast OVC008 20 20 100% 75.59 0.0
03 12:35 NW 15 16.09 Overcast OVC009 20 20 100% 75.59 0.0
03 12:15 NE 17 14.48 Overcast BKN009 OVC016 21 21 100% 75.54 0.0
03 11:55 N 11 11.27 Overcast BKN011 OVC017 20 20 100% 75.54 0.0
03 11:35 N 13 9.66 Fog/Mist OVC011 20 20 100% 75.54 0.0
03 11:15 N 11 16.09 Overcast BKN009 OVC012 20 20 100% 75.51 0.0
03 10:55 E 9 16.09 Overcast OVC009 20 20 100% 75.46 0.0
Date Time (cdt) Wind (kph) Vis. (km) Weather Sky Cond. Air Dwpt Max. Min. Relative Humidity Wind Chill (°C) Heat Index (°C) altimeter (cm) sea level (mb) 1 hr 3 hr 6 hr
6 hour
Temperature (ºC) Pressure Precipitation (cm)